Simultaneous Nadir Overpasses (SNOs) Predictions

Prediction of SNOs between FY3D and AQUA Satellite Orbit:

Table of predicted SNOs for the next 14.0 days since TLE Epoch: 5/31/2025
Index Date (FY3D) Time (FY3D) Lat,Lon (FY3D) SZA (FY3D ) Date (AQUA) Time (AQUA) Lat,Lon (AQUA) SZA (AQUA ) Distance(km) Time Diff (sec)
1 06/02/2025 02:42:15 -79.58, -53.07 122.44 06/02/2025 02:42:59 -79.58, -53.09 122.45 0.53 44
2 06/02/2025 03:32:52 79.33, 116.42 57.23 06/02/2025 03:32:11 79.34, 116.30 57.25 2.56 41
3 06/04/2025 12:13:00 -79.63, 163.84 122.66 06/04/2025 12:14:05 -79.63, 163.81 122.67 0.65 65
4 06/04/2025 13:03:36 79.39, -26.68 57.02 06/04/2025 13:03:16 79.40, -26.81 57.04 2.70 20
5 06/06/2025 22:34:22 79.48,-170.10 56.89 06/06/2025 22:34:22 79.48,-170.10 56.89 0.13 0
6 06/09/2025 08:05:06 79.51, 47.01 56.72 06/09/2025 08:05:26 79.51, 46.97 56.72 0.95 20
7 06/09/2025 08:55:44 -79.29,-143.77 123.57 06/09/2025 08:54:38 -79.29,-143.78 123.56 0.44 66
8 06/11/2025 17:35:51 79.57, -96.19 56.64 06/11/2025 17:36:30 79.57, -96.15 56.63 0.94 39
9 06/11/2025 18:26:30 -79.39, 72.81 123.62 06/11/2025 18:25:43 -79.38, 72.87 123.62 1.36 47
10 06/14/2025 03:06:35 79.61, 120.85 56.56 06/14/2025 03:07:33 79.62, 120.81 56.55 0.89 58



Historial Predications of SNOs between FY3D and AQUA
